Baton Rouge, LA
on Saturday, April 14, 2012

Saturday
Previous Day Next Day
Daily Summary
 ActualAverageRecord
Temperature
Mean Temperature - 68 °F  
Max Temperature 85 °F 79 °F 89 °F (1972)
Min Temperature 60 °F 56 °F 36 °F (1909)
Degree Days
Heating Degree Days 0 2  
Month to date heating degree days 0 36  
Since 1 July heating degree days 1116 1538  
Cooling Degree Days 8 4  
Month to date cooling degree days 92 50  
Year to date cooling degree days 334 139  
Growing Degree Days22 (Base - )  
Moisture
Dew Point 61 °F   
Average Humidity 71    
Maximum Humidity 97    
Minimum Humidity 45    
Precipitation
Precipitation 0.00 in 0.14 in 11.99 in (1967)
Month to date precipitation 2.92 2.16  
Year to date precipitation 22.65 17.33  
Snow
Snow 0.00 in - - ()
Month to date snowfall 0.0  
Since 1 July snowfall 0.0  
Snow Depth 0.00 in   
Wind
Wind Speed 9 mph   
Max Wind Speed 20 mph   
Max Gust Speed 25 mph   
Visibility 10 miles   
Events     

Key: T is trace of precipitation, MM is missing value
Source: NWS Daily Summary
Time(CDT)TemperatureDew PointHumidity Pressure Visibility Wind DirectionWind SpeedGust SpeedPrecipitationEvents Conditions
12:53 AM 66.0 °F 62.1 °F 87% 30.09 in 10.0 miles East 5.8 mph - N/A   Clear
1:53 AM 64.9 °F 62.1 °F 90% 30.09 in 10.0 miles East 4.6 mph - N/A   Clear
2:53 AM 64.0 °F 61.0 °F 90% 30.07 in 10.0 miles East 6.9 mph - N/A   Clear
3:53 AM 62.1 °F 60.1 °F 93% 30.06 in 10.0 miles East 4.6 mph - N/A   Clear
4:53 AM 62.1 °F 60.1 °F 93% 30.06 in 10.0 miles ESE 3.5 mph - N/A   Clear
5:53 AM 61.0 °F 59.0 °F 93% 30.06 in 10.0 miles Calm Calm - N/A   Clear
6:53 AM 62.1 °F 60.1 °F 93% 30.08 in 9.0 miles Calm Calm - N/A   Clear
7:53 AM 64.0 °F 62.1 °F 93% 30.10 in 9.0 miles ENE 3.5 mph - N/A   Clear
8:18 AM 66.2 °F 62.6 °F 88% 30.10 in 3.0 miles ESE 5.8 mph - N/A   Partly Cloudy
8:53 AM 69.1 °F 64.0 °F 84% 30.10 in 10.0 miles ESE 8.1 mph - N/A   Clear
9:53 AM 75.9 °F 62.1 °F 62% 30.11 in 10.0 miles SSE 13.8 mph - N/A   Clear
10:53 AM 78.1 °F 57.9 °F 50% 30.11 in 10.0 miles SSE 12.7 mph - N/A   Clear
11:53 AM 81.0 °F 57.0 °F 44% 30.11 in 10.0 miles SE 15.0 mph 20.7 mph N/A   Clear
12:53 PM 82.9 °F 60.1 °F 46% 30.09 in 10.0 miles South 13.8 mph - N/A   Partly Cloudy
1:53 PM 82.9 °F 61.0 °F 47% 30.08 in 10.0 miles SE 15.0 mph 19.6 mph N/A   Partly Cloudy
2:53 PM 84.9 °F 63.0 °F 48% 30.06 in 10.0 miles SE 12.7 mph 21.9 mph N/A   Scattered Clouds
3:53 PM 84.9 °F 63.0 °F 48% 30.04 in 9.0 miles SSE 10.4 mph 18.4 mph N/A   Scattered Clouds
4:53 PM 82.0 °F 63.0 °F 52% 30.02 in 9.0 miles ESE 16.1 mph 21.9 mph N/A   Scattered Clouds
5:53 PM 80.1 °F 62.1 °F 54% 30.02 in 10.0 miles SE 11.5 mph 21.9 mph N/A   Partly Cloudy
6:53 PM 77.0 °F 59.0 °F 54% 30.01 in 10.0 miles SE 12.7 mph 23.0 mph N/A   Clear
7:53 PM 75.9 °F 57.9 °F 54% 30.02 in 10.0 miles SE 11.5 mph - N/A   Clear
8:53 PM 73.0 °F 61.0 °F 66% 30.03 in 10.0 miles SE 8.1 mph - N/A   Clear
9:53 PM 72.0 °F 64.0 °F 76% 30.03 in 10.0 miles SE 9.2 mph - N/A   Clear
10:53 PM 71.1 °F 64.0 °F 78% 30.03 in 10.0 miles SE 9.2 mph - N/A   Clear
11:53 PM 70.0 °F 66.0 °F 87% 30.01 in 10.0 miles ESE 6.9 mph - N/A   Scattered Clouds

Astronomy

Sunrise: 06:37 AM (CDT)
Moon Rise: 02:35 AM (CDT) on 4 / 14
Sunset: 07:32 PM (CDT)
Moon Set: 01:49 PM (CDT) on 4 / 14
Current Moon Phase
Apr. 14
Upcoming Moon Phases
Apr. 21 Apr. 29 May. 06 May. 12

Powered by Weather Underground, Inc.